Location: Bremen
(53.0793°N, 8.8017°E)
Time: 12:30:02
(UTC+02:00)

Altair - Pass Details

Date: 13 April 2024
Orbit: 1501 x 1682 km, 47.2° (Epoch: 17 May)

Event Time Altitude Azimuth Distance (km) Brightness Sun altitude
Rises 05:00:28 0° 285° (WNW) 4,756 9.7 -12.9°
Reaches altitude 10° 05:04:17 10° 273° (W) 3,740 9.1 -12.4°
Maximum altitude 05:11:19 25° 224° (SW) 2,724 8.2 -11.5°
Drops below altitude 10° 05:18:13 10° 175° (S) 3,655 9.2 -10.6°
Sets 05:21:54 0° 162° (SSE) 4,625 9.9 -10.1°
